User: anonymous   Login
Location: Unspecified
(0.0000°N, 0.0000°E)
Time: 22:55:04
(UTC+00:00)
Language:

NEE 01 PEGASUS - Orbit

View from above orbital plane
View from above orbital plane
View from above satellite
View from above satellite

Ground track
Ground track

The orbit data is extracted from the following two-line orbital elements,

1 39151U 13018B   18317.79102049  .00000188  00000-0  31802-4 0  9999
2 39151  97.9755  50.8093 0017159 179.8763 180.2455 14.79963713299647
Epoch (UTC): 13 November 2018 18:59:04
Eccentricity: 0.0017159
inclination: 97.9755°
perigee height: 617 km
apogee height: 641 km
right ascension of ascending node: 50.8093°
argument of perigee: 179.8763°
revolutions per day: 14.79963713
mean anomaly at epoch: 180.2455°
orbit number at epoch: 29964

The dashed part of the orbit path shows where the satellite is in the earth's shadow,  

DLR